• In Deutschland
  • Länderverzeichnis
  • Für 7 Tage
  • Wassertemperatur
  • Satellitenkarten
  • Wetterkarte
  • Widgets
  • user-avatar
    Anmelden

    Stündliche Wetter Salzburg

    Heute, 18 Oktober, Mittwoch

    Zeit Temperatur Niederschläge Wind Luftdruck Luftfeuchtigkeit
    00:00 +5°C° 0 mm 2 m/S 628 mmHg 65%
    01:00 +5°C° 0 mm 2 m/S 628 mmHg 61%
    02:00 +4°C° 0 mm 2 m/S 627 mmHg 59%
    03:00 +5°C° 0 mm 1 m/S 627 mmHg 57%
    04:00 +5°C° 0 mm 1 m/S 627 mmHg 56%
    05:00 +5°C° 0 mm 1 m/S 627 mmHg 55%
    06:00 +5°C° 0 mm 1 m/S 627 mmHg 55%
    07:00 +5°C° 0 mm 1 m/S 627 mmHg 53%
    08:00 +8°C° 0 mm 1 m/S 627 mmHg 49%
    09:00 +10°C° 0 mm 1 m/S 628 mmHg 45%
    10:00 +12°C° 0 mm 0 m/S 629 mmHg 41%
    11:00 +14°C° 0 mm 1 m/S 629 mmHg 41%
    12:00 +14°C° 0 mm 1 m/S 629 mmHg 41%
    13:00 +15°C° 0 mm 1 m/S 629 mmHg 42%
    14:00 +14°C° 0 mm 1 m/S 628 mmHg 49%
    15:00 +13°C° 0 mm 1 m/S 628 mmHg 56%
    16:00 +12°C° 0 mm 1 m/S 627 mmHg 64%
    17:00 +10°C° 0 mm 1 m/S 627 mmHg 71%
    18:00 +8°C° 0 mm 1 m/S 626 mmHg 79%
    19:00 +6°C° 0 mm 1 m/S 626 mmHg 87%
    20:00 +6°C° 0 mm 1 m/S 626 mmHg 85%
    21:00 +5°C° 0 mm 1 m/S 626 mmHg 84%
    22:00 +5°C° 0 mm 1 m/S 626 mmHg 82%
    23:00 +5°C° 0 mm 1 m/S 626 mmHg 80%

    Morgen, 19 Oktober, Donnerstag

    Zeit Temperatur Niederschläge Wind Luftdruck Luftfeuchtigkeit
    00:00 +5°C° 0 mm 1 m/S 626 mmHg 78%
    01:00 +4°C° 0 mm 1 m/S 626 mmHg 76%
    02:00 +4°C° 0 mm 1 m/S 625 mmHg 75%
    03:00 +4°C° 0 mm 1 m/S 625 mmHg 73%
    04:00 +4°C° 0 mm 1 m/S 625 mmHg 71%
    05:00 +4°C° 0 mm 1 m/S 625 mmHg 70%
    06:00 +4°C° 0 mm 1 m/S 625 mmHg 69%
    07:00 +4°C° 0 mm 1 m/S 625 mmHg 68%
    08:00 +7°C° 0 mm 1 m/S 626 mmHg 61%
    09:00 +8°C° 0 mm 0 m/S 627 mmHg 54%
    10:00 +11°C° 0 mm 0 m/S 628 mmHg 47%
    11:00 +13°C° 0 mm 1 m/S 628 mmHg 46%
    12:00 +14°C° 0 mm 1 m/S 628 mmHg 44%
    13:00 +15°C° 0 mm 1 m/S 628 mmHg 43%
    14:00 +14°C° 0 mm 1 m/S 628 mmHg 50%
    15:00 +13°C° 0 mm 1 m/S 628 mmHg 56%
    16:00 +12°C° 0 mm 1 m/S 627 mmHg 63%
    17:00 +10°C° 0 mm 1 m/S 627 mmHg 69%
    18:00 +8°C° 0 mm 1 m/S 626 mmHg 75%
    19:00 +6°C° 0 mm 1 m/S 626 mmHg 80%
    20:00 +5°C° 0 mm 1 m/S 626 mmHg 79%
    21:00 +5°C° 0 mm 1 m/S 626 mmHg 77%
    22:00 +5°C° 0 mm 1 m/S 626 mmHg 76%
    23:00 +4°C° 0 mm 1 m/S 625 mmHg 75%

    übermorgen, 20 Oktober, Freitag

    Zeit Temperatur Niederschläge Wind Luftdruck Luftfeuchtigkeit
    00:00 +4°C° 0 mm 1 m/S 625 mmHg 74%
    01:00 +4°C° 0 mm 1 m/S 625 mmHg 73%
    02:00 +4°C° 0 mm 1 m/S 625 mmHg 72%
    03:00 +4°C° 0 mm 1 m/S 625 mmHg 71%
    04:00 +3°C° 0 mm 1 m/S 625 mmHg 71%
    05:00 +3°C° 0 mm 1 m/S 625 mmHg 69%
    06:00 +3°C° 0 mm 1 m/S 625 mmHg 67%
    07:00 +3°C° 0 mm 1 m/S 625 mmHg 66%
    08:00 +6°C° 0 mm 1 m/S 626 mmHg 59%
    09:00 +9°C° 0 mm 1 m/S 628 mmHg 51%
    10:00 +11°C° 0 mm 0 m/S 629 mmHg 44%
    11:00 +13°C° 0 mm 1 m/S 629 mmHg 43%
    12:00 +13°C° 0 mm 1 m/S 629 mmHg 42%
    13:00 +14°C° 0 mm 1 m/S 629 mmHg 40%
    14:00 +13°C° 0 mm 1 m/S 629 mmHg 49%
    15:00 +12°C° 0 mm 1 m/S 628 mmHg 57%
    16:00 +11°C° 0 mm 1 m/S 628 mmHg 65%
    17:00 +9°C° 0 mm 1 m/S 628 mmHg 73%
    18:00 +7°C° 0 mm 1 m/S 627 mmHg 80%
    19:00 +5°C° 0 mm 1 m/S 627 mmHg 87%
    20:00 +5°C° 0 mm 1 m/S 627 mmHg 86%
    21:00 +5°C° 0 mm 1 m/S 627 mmHg 85%
    22:00 +4°C° 0 mm 1 m/S 628 mmHg 83%
    23:00 +4°C° 0 mm 1 m/S 628 mmHg 81%

    21 Oktober, Samstag

    Zeit Temperatur Niederschläge Wind Luftdruck Luftfeuchtigkeit
    00:00 +4°C° 0 mm 1 m/S 628 mmHg 79%
    01:00 +4°C° 0 mm 1 m/S 628 mmHg 77%
    02:00 +4°C° 0 mm 1 m/S 627 mmHg 74%
    03:00 +4°C° 0 mm 1 m/S 627 mmHg 72%
    04:00 +4°C° 0 mm 1 m/S 627 mmHg 70%
    05:00 +4°C° 0 mm 1 m/S 627 mmHg 69%
    06:00 +4°C° 0 mm 1 m/S 627 mmHg 68%
    07:00 +4°C° 0 mm 1 m/S 627 mmHg 67%
    08:00 +6°C° 0 mm 1 m/S 628 mmHg 62%
    09:00 +9°C° 0 mm 1 m/S 629 mmHg 56%
    10:00 +11°C° 0 mm 0 m/S 630 mmHg 51%
    11:00 +11°C° 0 mm 0 m/S 630 mmHg 50%
    12:00 +13°C° 0 mm 1 m/S 630 mmHg 49%
    13:00 +14°C° 0 mm 1 m/S 630 mmHg 47%
    14:00 +13°C° 0 mm 1 m/S 629 mmHg 53%
    15:00 +13°C° 0 mm 1 m/S 629 mmHg 60%
    16:00 +12°C° 0 mm 1 m/S 628 mmHg 66%
    17:00 +10°C° 0 mm 1 m/S 628 mmHg 71%
    18:00 +8°C° 0 mm 1 m/S 627 mmHg 75%
    19:00 +7°C° 0 mm 1 m/S 627 mmHg 80%
    20:00 +6°C° 0 mm 1 m/S 627 mmHg 80%
    21:00 +6°C° 0 mm 1 m/S 627 mmHg 80%
    22:00 +6°C° 0 mm 1 m/S 627 mmHg 80%
    23:00 +5°C° 0 mm 1 m/S 626 mmHg 83%

    22 Oktober, Sonntag

    Zeit Temperatur Niederschläge Wind Luftdruck Luftfeuchtigkeit
    00:00 +5°C° 0 mm 1 m/S 626 mmHg 86%
    01:00 +4°C° 0 mm 1 m/S 626 mmHg 88%
    02:00 +4°C° 0,2 mm 1 m/S 626 mmHg 90%
    03:00 +5°C° 0,2 mm 1 m/S 626 mmHg 92%
    04:00 +5°C° 0,2 mm 1 m/S 626 mmHg 94%
    05:00 +5°C° 1,1 mm 1 m/S 626 mmHg 95%
    06:00 +3°C° 1,1 mm 2 m/S 626 mmHg 96%
    07:00 +3°C° 1,1 mm 2 m/S 626 mmHg 97%
    08:00 +3°C° 1,6 mm 2 m/S 626 mmHg 96%
    09:00 +3°C° 1,6 mm 2 m/S 626 mmHg 96%
    10:00 +3°C° 1,6 mm 2 m/S 625 mmHg 95%
    11:00 +2°C° 2,7 mm 2 m/S 625 mmHg 95%
    12:00 +2°C° 2,7 mm 2 m/S 625 mmHg 95%
    13:00 +1°C° 2,7 mm 2 m/S 625 mmHg 95%
    14:00 +1°C° 2,2 mm 2 m/S 625 mmHg 95%
    15:00 -1°C° 2,2 mm 2 m/S 625 mmHg 96%
    16:00 -1°C° 2,2 mm 2 m/S 625 mmHg 96%
    17:00 -1°C° 0,7 mm 2 m/S 625 mmHg 96%
    18:00 -2°C° 0,7 mm 2 m/S 625 mmHg 96%
    19:00 -2°C° 0,7 mm 2 m/S 625 mmHg 96%
    20:00 -2°C° 0,3 mm 2 m/S 625 mmHg 96%
    21:00 -2°C° 0,3 mm 2 m/S 626 mmHg 96%
    22:00 -2°C° 0,3 mm 2 m/S 626 mmHg 96%
    23:00 -3°C° 0,4 mm 2 m/S 625 mmHg 96%

    23 Oktober, Montag

    Zeit Temperatur Niederschläge Wind Luftdruck Luftfeuchtigkeit
    00:00 -3°C° 0,4 mm 2 m/S 625 mmHg 96%
    01:00 -3°C° 0,4 mm 2 m/S 625 mmHg 97%
    02:00 -3°C° 0,3 mm 2 m/S 625 mmHg 97%
    03:00 -3°C° 0,3 mm 2 m/S 625 mmHg 96%
    04:00 -3°C° 0,3 mm 2 m/S 625 mmHg 96%
    05:00 -3°C° 0,2 mm 2 m/S 626 mmHg 96%
    06:00 -3°C° 0,2 mm 2 m/S 626 mmHg 95%
    07:00 -3°C° 0,2 mm 2 m/S 626 mmHg 95%
    08:00 -3°C° 0,2 mm 2 m/S 626 mmHg 94%
    09:00 -2°C° 0,2 mm 2 m/S 626 mmHg 92%
    10:00 -1°C° 0,2 mm 3 m/S 626 mmHg 91%
    11:00 -1°C° 0,1 mm 3 m/S 626 mmHg 91%
    12:00 0°C° 0,1 mm 3 m/S 626 mmHg 90%
    13:00 0°C° 0,1 mm 3 m/S 626 mmHg 89%
    14:00 +1°C° 0,3 mm 2 m/S 626 mmHg 91%
    15:00 -1°C° 0,3 mm 2 m/S 626 mmHg 93%
    16:00 -1°C° 0,3 mm 2 m/S 626 mmHg 95%
    17:00 -1°C° 0,4 mm 2 m/S 626 mmHg 95%
    18:00 -2°C° 0,4 mm 2 m/S 627 mmHg 96%
    19:00 -2°C° 0,4 mm 2 m/S 627 mmHg 96%
    20:00 -2°C° 0,3 mm 2 m/S 627 mmHg 96%
    21:00 -2°C° 0,3 mm 2 m/S 627 mmHg 96%
    22:00 -2°C° 0,3 mm 2 m/S 627 mmHg 96%
    23:00 -2°C° 0,3 mm 2 m/S 627 mmHg 97%
    Mehr zeigen